This is the latest recevied weather packets stored in our database for station/object W2OBX. If no packets are shown the sender has not sent any weather packets the latest 10 day(s).
| Time | Temp. | Humidity | Pressure | Rain* | Wind** | Luminosity | Snow |
|---|---|---|---|---|---|---|---|
| 1777382356 | 13.89° C | 99% | 1020 hPa | 0 mm | - | 49 W/m² | - |
| 1777382053 | 13.89° C | 99% | 1019.8 hPa | 0 mm | - | 48 W/m² | - |
| 1777381749 | 13.89° C | 99% | 1020.1 hPa | 0 mm | - | 43 W/m² | - |
| 1777381443 | 13.89° C | 99% | 1019.8 hPa | 0 mm | - | 39 W/m² | - |
| 1777381139 | 13.89° C | 99% | 1019.6 hPa | 0 mm | - | 35 W/m² | - |
| 1777380836 | 13.89° C | 99% | 1019.6 hPa | 0 mm | - | 28 W/m² | - |
| 1777380534 | 13.89° C | 99% | 1019.5 hPa | 0 mm | - | 22 W/m² | - |
| 1777380230 | 13.33° C | 99% | 1019.1 hPa | 0 mm | - | 19 W/m² | - |
| 1777379927 | 13.33° C | 99% | 1018.6 hPa | 0 mm | - | 13 W/m² | - |
| 1777379622 | 13.33° C | 99% | 1018.2 hPa | 0 mm | - | 11 W/m² | - |
| 1777379318 | 13.33° C | 99% | 1019.5 hPa | 0 mm | - | 8 W/m² | - |
| 1777379012 | 13.33° C | 99% | 1020 hPa | 0 mm | - | 8 W/m² | - |
| 1777378708 | 13.33° C | 99% | 1020.1 hPa | 0 mm | - | 5 W/m² | - |
| 1777378406 | 13.33° C | 99% | 1021.9 hPa | 0 mm | - | 4 W/m² | - |
| 1777378105 | 13.33° C | 99% | 1022.8 hPa | 0 mm | - | 4 W/m² | - |
| 1777377800 | 13.33° C | 99% | 1022.6 hPa | 0 mm | - | 4 W/m² | - |
| 1777377495 | 13.33° C | 99% | 1022.8 hPa | 0 mm | - | 3 W/m² | - |
| 1777377190 | 13.33° C | 99% | 1023.1 hPa | 0 mm | - | 3 W/m² | - |
| 1777376888 | 13.33° C | 99% | 1023 hPa | 0 mm | - | 2 W/m² | - |
| 1777376585 | 13.33° C | 99% | 1023 hPa | 0 mm | - | 2 W/m² | - |
| 1777376282 | 13.33° C | 99% | 1023.3 hPa | 0 mm | - | 2 W/m² | - |
| 1777375976 | 13.33° C | 99% | 1023 hPa | 0 mm | - | 2 W/m² | - |
| 1777375676 | 13.33° C | 99% | 1023.1 hPa | 0 mm | - | 1 W/m² | - |
| 1777375370 | 13.33° C | 99% | 1022.8 hPa | 0 mm | - | 1 W/m² | - |
| 1777375068 | 13.33° C | 99% | 1022.8 hPa | 0 mm | - | 1 W/m² | - |
* Rain latest hour (hover to see other rain measurements)
** Current wind speed in m/s (hover to see current wind gust speed)